SCP
0 0 0 0 0 0 0 0 0 0 0 0 0 0 0 0 0 0 0 0 0 0 0 0 0 0 0 0 0 0 0 0 0 0 0 0 0 0 0 0 0 0 0
0 0 0 0 0 0 0 0 0 0 0 0 0 0 0 0 0 0 0 0 0 0 0 0 0 0 0 0 0 0 0 0 0 0 0 0 0 0 0 0 0 0 0
0 0 0 0 0 0 0 0 0 0 0 0 0 0 0 0 0 0 0 0 0 0 0 0 0 0 0 0 0 0 0 0 0 0 0 0 0 0 0 1 1 0 0
0 0 0 0 0 0 0 0 0 0 0 0 0 0 0 0 0 0 0 0 0 0 0 0 0 0 0 0 0 0 0 0 0 0 0 0 0 0 0 1 1 1 1
0 0 0 0 0 0 0 0 0 0 0 0 0 0 0 0 0 0 0 0 0 0 0 0 0 0 0 0 0 0 0 0 0 0 0 0 0 0 0 1 1 1 1
0 0 0 0 0 0 0 0 0 0 0 0 0 0 0 0 0 0 0 0 0 0 0 0 0 0 0 0 0 0 0 0 0 0 0 0 0 0 0 0 1 1 1
0 0 0 0 0 0 0 0 0 0 0 0 0 0 0 0 0 0 0 0 0 0 0 0 0 0 0 0 0 0 0 0 0 0 0 0 0 0 0 0 0 1 1
0 0 0 0 0 0 0 0 0 0 0 0 0 0 0 0 0 0 0 0 0 0 0 0 0 0 0 0 0 0 0 0 0 0 0 0 0 0 0 0 0 0 1
0 0 0 0 0 0 0 0 0 0 0 0 0 0 0 0 0 0 0 0 0 0 0 0 0 0 0 0 0 0 0 0 0 0 0 0 0 0 0 0 0 0 0
0 0 0 0 0 0 0 0 0 0 0 0 0 0 0 0 0 0 0 0 0 0 0 0 0 0 0 0 0 0 0 0 0 0 0 0 0 0 0 0 0 0 0
0 0 0 0 0 0 0 0 0 0 0 0 0 0 0 0 0 0 0 0 0 0 0 0 0 0 0 0 0 0 0 0 0 0 0 0 0 0 0 0 0 0 0
0 0 0 0 0 0 0 0 0 0 0 0 0 0 0 0 0 0 0 0 0 0 0 0 0 0 0 0 0 0 0 0 0 0 0 0 0 0 0 0 0 0 0
0 0 0 0 0 0 0 0 0 0 0 0 0 0 0 0 0 0 0 0 0 0 0 0 0 0 0 0 0 0 0 0 0 0 0 0 0 0 0 0 0 0 0
0 0 0 0 0 0 0 0 0 0 0 0 0 0 0 0 0 0 0 0 0 0 0 0 0 0 0 0 0 0 0 0 0 0 0 0 0 0 0 0 0 0 0
0 0 0 0 0 0 0 0 0 0 0 0 0 0 0 0 0 0 0 0 0 0 0 0 0 0 0 0 0 0 0 0 0 0 0 0 0 0 0 0 0 0 0
0 0 0 0 0 0 0 0 0 0 0 0 0 0 0 0 0 0 0 0 0 0 0 0 0 0 0 0 0 0 0 0 0 0 0 0 0 0 0 0 0 0 0
0 0 0 0 0 0 0 0 0 0 0 0 0 0 0 0 0 0 0 0 0 0 0 0 0 0 0 0 0 0 0 0 0 0 0 0 0 0 0 0 0 0 0
0 0 0 0 0 0 0 0 0 0 0 0 0 0 0 0 0 0 0 0 0 0 0 0 0 0 0 0 0 0 0 0 0 0 0 0 0 0 0 0 0 0 0
0 0 0 0 0 0 0 0 0 0 0 0 0 0 0 0 0 0 0 0 0 0 0 0 0 0 0 0 0 0 0 0 0 0 0 0 0 0 0 0 0 0 0
0 0 0 0 0 0 0 0 0 0 0 0 0 0 0 0 0 0 0 0 0 0 0 0 0 0 0 0 0 0 0 0 0 0 0 0 0 0 0 0 0 0 0
0 0 0 0 0 0 0 0 0 0 0 0 0 0 0 0 0 0 0 0 0 0 0 0 0 0 0 0 0 0 0 0 0 0 0 0 0 0 0 0 0 0 0
0 0 0 0 0 0 0 0 0 0 0 0 0 0 0 0 0 0 0 0 0 0 0 0 0 0 0 0 0 0 0 0 0 0 0 0 0 0 0 0 0 0 0
0 0 0 0 0 0 0 0 0 0 0 0 0 0 0 0 0 0 0 0 0 0 0 0 0 0 0 0 0 0 0 0 0 0 0 0 0 0 0 0 0 0 0
0 0 0 0 0 0 0 0 0 0 0 0 0 0 0 0 0 0 0 0 0 0 0 0 0 0 0 0 0 0 0 0 0 0 0 0 0 0 0 0 0 0 0
0 0 0 0 0 0 0 0 0 0 0 0 0 0 0 0 0 0 0 0 0 0 0 0 0 0 0 0 0 0 0 0 0 0 0 0 0 0 0 0 0 0 0
0 0 0 0 0 0 0 0 0 0 0 0 0 0 0 0 0 0 0 0 0 0 0 0 0 0 0 0 0 0 0 0 0 0 0 0 0 0 0 0 0 0 0
Wind_Speed
11 15 21 22 22 23 23 24 24 24 24 25 25 26 26 26 26 26 26 26 26 26 26 26 26 25 25 25 25 25 24 24 24 23 22 20 16 14 13 11 10 9 6
12 14 18 21 21 22 23 23 24 24 24 25 25 26 26 26 26 26 26 26 26 26 26 26 26 26 25 25 25 25 25 25 25 24 23 19 14 12 13 13 11 9 8
11 13 16 20 20 21 22 23 23 24 24 25 25 26 26 26 26 26 26 26 26 26 26 25 25 26 25 25 25 24 24 25 25 25 22 14 13 12 13 14 13 13 12
11 12 14 19 20 21 22 22 23 23 24 24 25 25 26 26 26 26 26 26 26 26 25 25 25 25 25 25 25 25 24 24 25 24 14 13 14 14 15 16 16 15 14
10 11 15 19 20 20 21 22 22 22 23 23 24 25 25 25 26 26 26 26 26 25 25 25 25 25 25 25 25 25 25 25 25 20 14 14 13 15 18 18 17 17 15
10 12 15 19 19 20 20 21 21 22 22 23 24 24 25 25 25 25 25 25 25 25 25 25 25 25 25 25 25 25 25 25 23 15 14 14 13 17 22 21 19 18 17
10 11 13 18 19 19 20 21 21 21 22 23 23 24 24 25 25 25 25 25 25 25 26 25 25 25 25 25 25 25 25 25 19 15 13 13 13 19 22 22 22 20 18
9 10 10 15 17 18 19 20 20 20 21 22 23 24 24 24 24 24 25 25 26 26 26 26 26 26 26 25 25 24 24 24 19 16 14 14 15 20 22 23 23 22 20
8 9 10 11 12 14 15 18 18 19 20 20 21 23 23 22 23 23 24 25 26 26 26 26 26 27 26 26 25 24 24 24 18 12 14 11 16 21 23 23 23 23 22
7 9 10 11 12 11 11 14 16 17 19 19 19 21 21 20 20 21 21 24 25 25 25 26 26 27 26 25 23 23 24 20 13 14 11 11 18 22 23 24 23 23 23
7 8 10 11 11 11 10 11 12 14 16 17 15 20 18 13 14 15 20 23 24 24 24 24 25 26 25 21 22 23 20 10 15 12 11 15 21 23 24 24 24 24 24
8 9 9 11 11 11 9 8 8 9 11 12 12 14 12 12 12 15 19 21 22 23 22 22 24 21 17 13 16 18 10 14 13 11 11 20 23 24 24 24 24 24 24
7 8 9 9 10 10 8 7 6 6 7 9 12 13 12 11 10 10 10 12 14 17 14 16 16 12 13 13 13 13 14 13 10 10 13 22 24 25 25 25 25 25 24
7 8 8 8 9 10 9 7 7 6 7 7 10 12 11 9 10 11 9 11 11 9 12 13 11 15 16 16 16 16 17 12 11 10 13 22 24 25 25 25 25 25 24
6 7 8 7 9 9 8 7 7 7 8 9 8 9 12 10 11 11 10 10 12 11 12 13 14 16 17 16 15 17 17 18 17 15 12 21 24 25 26 25 25 24 24
5 6 7 8 9 9 8 8 7 7 8 8 8 11 12 10 11 12 12 12 12 12 12 13 16 16 14 14 16 17 18 18 17 17 15 16 22 24 24 24 23 23 24
4 5 7 8 9 10 10 9 7 7 8 8 8 10 11 12 13 13 12 12 12 13 15 13 16 14 14 15 17 18 16 17 17 18 17 14 14 18 21 21 21 21 22
2 5 6 6 9 10 10 9 7 7 8 8 8 9 12 13 14 13 12 12 13 13 13 13 13 13 14 15 15 15 15 15 19 18 16 15 13 12 14 17 17 18 19
1 4 6 7 9 10 10 8 8 7 8 7 8 8 11 13 14 13 11 12 14 12 12 13 13 14 15 16 15 15 15 15 17 17 17 16 13 12 10 11 14 16 17
0 3 6 7 8 9 8 7 7 8 7 7 8 9 13 12 14 13 11 14 14 12 12 13 16 16 15 15 16 16 16 17 16 15 14 12 10 10 9 9 10 11 15
1 3 6 7 8 8 7 8 8 9 8 7 7 11 12 13 14 13 11 13 13 13 15 17 16 17 15 14 15 16 16 17 15 10 8 9 9 8 8 10 9 9 9
1 3 5 7 8 8 7 7 7 9 7 7 8 10 11 13 14 11 14 13 14 13 16 16 16 14 14 13 14 15 13 13 4 9 9 9 8 7 9 11 11 11 11
2 3 4 6 7 7 8 6 7 7 7 7 9 8 11 13 13 14 15 14 15 14 14 17 17 17 15 14 12 10 10 10 14 10 12 8 8 9 10 11 12 12 12
2 1 4 5 6 7 8 8 10 9 9 10 9 9 12 13 13 14 15 16 15 14 16 16 16 15 16 13 12 11 11 13 11 10 9 11 14 12 12 11 11 12 12
3 1 3 5 6 7 8 9 9 9 9 9 10 12 12 12 13 14 15 15 15 14 16 17 17 16 13 13 12 12 12 12 13 13 14 13 11 11 11 12 11 11 11
4 2 3 5 5 6 8 8 9 11 11 12 13 12 11 10 11 14 15 15 15 14 16 16 16 17 14 15 13 11 11 10 10 11 13 14 13 12 13 11 11 10 9
Wind_Direction
352 348 345 356 6 10 13 14 15 14 14 14 14 13 12 11 9 9 7 5 4 2 1 1 360 359 358 357 356 354 351 351 349 347 341 331 317 310 309 307 292 268 253
343 347 347 2 8 12 14 15 15 15 15 15 14 13 12 10 9 8 7 4 2 1 359 358 357 356 355 354 353 351 349 348 347 344 336 321 310 307 305 304 295 287 287
356 352 351 7 10 13 15 15 16 15 15 15 14 13 11 10 8 8 6 3 1 360 358 357 355 353 352 351 350 348 347 346 344 340 327 320 321 313 308 304 295 281 272
5 358 358 9 12 15 16 16 16 16 16 15 13 12 11 9 7 6 5 2 0 359 357 355 353 351 350 348 347 345 344 343 342 333 326 329 322 318 317 308 299 288 274
16 9 5 12 14 17 18 17 17 16 16 14 13 11 9 7 5 4 3 360 358 357 355 354 352 349 347 345 344 342 342 342 337 326 330 328 321 322 322 313 304 294 282
24 17 12 16 17 19 19 18 17 15 14 13 11 8 7 5 2 1 0 357 355 354 353 352 349 347 345 343 341 339 340 340 331 327 327 323 320 326 325 320 310 297 284
25 20 18 19 19 19 19 18 15 13 12 10 8 6 4 2 359 357 357 354 352 351 350 349 346 344 342 341 338 337 336 336 327 322 321 316 316 322 322 323 322 311 292
26 21 22 21 20 18 17 17 14 12 11 9 6 3 1 358 356 354 354 351 349 348 346 345 343 341 339 337 335 334 333 331 322 315 316 310 313 319 320 321 320 318 311
29 25 22 19 17 14 13 14 11 11 8 6 4 1 357 354 353 351 351 348 346 345 343 342 339 337 336 334 330 329 329 326 312 312 311 306 315 317 316 316 316 316 314
33 28 21 19 14 5 3 10 6 7 6 3 1 358 354 350 349 347 348 345 343 342 339 338 336 334 333 329 326 326 325 316 312 313 305 305 313 312 311 311 311 312 311
39 32 23 16 11 0 356 358 359 2 3 359 358 356 352 347 345 343 342 340 339 338 336 334 333 331 329 324 323 324 319 312 314 304 300 304 307 307 306 306 306 307 306
32 27 22 15 6 358 353 352 355 358 356 356 353 351 347 343 340 338 335 335 335 333 332 331 330 327 327 322 322 321 313 313 306 300 299 303 304 303 302 302 302 301 300
33 27 19 12 1 357 352 351 353 350 350 349 351 349 343 340 335 336 333 332 331 330 330 328 326 326 323 319 314 312 310 309 302 301 298 299 299 299 299 299 297 295 294
35 25 15 5 360 356 353 348 350 348 346 346 345 345 343 336 333 332 328 327 327 324 323 323 319 318 317 313 310 308 306 304 300 298 293 294 295 297 296 294 292 290 288
34 23 13 355 359 355 350 345 348 348 345 341 340 341 342 334 330 328 323 322 321 319 319 319 316 315 312 310 307 306 304 302 298 293 290 290 292 292 291 290 288 286 284
33 18 5 356 359 352 349 348 347 345 341 337 338 339 338 333 327 324 321 319 319 318 318 314 312 311 309 308 306 304 301 298 293 292 289 289 287 287 287 287 285 283 282
33 9 4 353 351 348 347 346 343 342 340 336 336 334 336 334 329 326 320 319 319 319 316 312 310 308 308 307 304 303 299 296 293 291 288 285 284 283 281 281 282 283 282
22 2 1 349 342 346 346 342 341 339 338 334 334 332 337 335 333 327 322 320 320 318 314 312 310 310 309 307 305 303 300 295 291 289 286 281 277 277 278 278 283 286 287
5 357 352 349 343 343 340 337 336 334 334 334 333 334 337 335 333 327 321 318 320 316 313 311 311 310 307 307 304 302 298 294 290 285 280 276 271 270 275 281 288 289 289
221 349 348 346 343 341 338 335 333 335 335 335 333 334 334 331 331 326 319 320 319 314 313 313 311 307 305 304 304 302 299 292 280 273 272 271 269 271 280 294 295 289 287
213 340 347 343 345 344 341 338 336 335 331 330 330 331 329 329 328 324 320 318 317 313 312 310 308 307 306 305 305 306 301 286 271 268 274 279 276 281 295 297 295 296 293
229 341 341 344 342 346 341 330 325 321 318 321 325 327 328 327 324 321 318 316 314 311 308 308 308 305 303 305 307 308 310 305 293 324 296 282 284 299 299 298 298 294 292
211 354 341 338 335 341 338 328 324 320 320 330 332 328 328 323 320 318 316 315 311 310 306 307 306 303 303 303 297 298 301 309 328 299 293 291 308 306 300 298 293 295 292
159 8 323 328 331 340 338 334 335 331 331 332 329 322 322 321 319 318 317 316 312 309 307 306 304 300 298 296 295 288 280 286 290 300 302 308 303 297 297 295 296 294 289
157 265 309 318 327 339 339 336 331 328 326 324 324 322 323 322 321 322 322 319 316 313 310 306 303 299 294 290 291 290 286 282 271 273 287 295 298 297 296 296 292 288 287
177 229 291 310 326 338 337 334 331 328 327 325 327 325 326 322 322 326 326 323 319 316 313 310 305 299 293 289 286 284 282 279 279 280 286 294 296 298 296 292 286 283 285